Tracking 25734 objects as of 27-May-2022
HD Live streaming from Space Station
objects crossing your sky now

DMSP 5D-2 F11 DEB

Track DMSP 5D-2 F11 DEB now!
10-day predictions


NORAD ID: 28317
Int'l Code: 1991-082AE
Perigee: 757.3 km
Apogee: 939.2 km
Inclination: 98.9 °
Period: 101.7 minutes
Semi major axis: 7219 km
RCS: 0.0133 m2 (small)
Launch date: November 28, 1991
Source: United States (US)
Launch site: AIR FORCE WESTERN TEST RANGE (AFWTR)

Note: This is SATELLITE DEBRIS
aabbcc
Your satellite tracking list
Your tracking list is empty




NASA's NSSDC Master Catalog

Two Line Element Set (TLE):
1 28317U 91082AE  22146.47878418  .00000729  00000-0  36784-3 0  9992
2 28317  98.8664 145.1329 0125969 206.0033 313.3176 14.15353982933106
Source of the keplerian elements: AFSPC